Theta_e
288 288 288 287 286 285 285 284 285 285 286 286 288 289 289 288 289 289 288 289 290 292 293 293 293 296 298 297 297 301 303 300 307 309 311 311 310 310
288 287 286 286 285 285 284 283 282 283 284 285 286 287 288 288 289 288 288 288 288 288 289 293 293 292 295 297 297 296 301 305 302 306 310 310 308 306
287 286 285 285 284 283 282 281 281 281 283 283 283 284 284 286 288 288 288 288 287 287 287 288 289 291 292 295 296 297 296 301 306 305 309 307 306 303
285 285 285 284 283 282 281 281 281 281 281 282 283 283 284 286 286 287 287 287 286 286 286 288 289 291 291 293 293 294 296 294 299 304 304 303 304 303
285 284 283 283 283 282 281 281 281 280 281 283 283 283 284 285 285 286 286 285 285 285 285 286 288 289 291 291 292 293 293 293 293 293 298 301 300 299
284 284 283 282 282 281 281 281 280 280 280 281 281 283 284 284 284 284 285 284 284 284 284 284 287 289 290 292 291 292 293 293 292 292 292 292 292 292
282 281 281 281 281 281 280 280 280 280 280 281 281 282 282 283 283 284 283 284 284 284 283 283 285 287 289 292 291 292 292 292 292 292 292 291 292 292
279 278 278 278 278 279 279 279 280 280 281 281 281 281 281 282 283 283 282 282 283 283 283 285 284 285 286 287 289 292 292 292 292 292 292 292 292 292
277 277 277 278 277 278 278 279 280 280 280 280 282 281 282 282 282 282 282 282 282 283 283 283 283 284 285 285 286 288 290 291 292 292 293 293 292 292
277 277 277 277 277 278 280 280 280 279 280 280 280 281 281 281 282 282 282 282 282 282 283 283 283 283 284 284 284 286 286 289 290 291 292 292 292 291
277 277 277 277 278 279 279 279 279 280 280 281 281 281 281 281 281 281 282 282 282 283 282 283 283 283 283 283 283 284 286 286 288 290 290 290 290 290
277 277 276 277 278 279 279 278 279 280 279 280 280 280 280 280 280 280 280 281 283 281 282 283 282 283 282 283 284 284 284 285 286 287 288 288 288 288
276 276 276 277 278 278 278 277 278 278 278 279 279 280 280 280 281 281 280 279 280 281 281 281 282 282 282 283 284 284 285 284 284 285 286 286 287 288
275 275 276 276 276 276 276 277 277 277 277 278 278 279 280 280 281 282 282 282 281 281 280 281 281 282 283 282 283 284 285 285 285 285 286 287 287 286
275 275 275 274 274 274 275 275 275 275 276 276 277 278 278 280 281 282 283 283 283 283 283 282 282 282 282 282 283 284 285 285 285 285 286 287 287 287
274 274 273 273 273 273 273 273 273 273 274 274 275 276 278 279 281 281 282 284 284 284 284 284 283 282 282 283 283 284 284 285 286 286 286 287 287 287
273 273 273 272 272 272 272 272 271 271 273 274 274 275 276 278 279 281 282 282 282 283 283 284 284 283 283 283 284 284 284 284 285 286 285 286 286 286
273 272 272 272 271 271 271 271 270 269 271 272 273 274 274 276 277 279 280 280 281 281 282 283 284 284 284 285 285 285 284 284 284 284 285 285 285 285
273 272 272 271 271 270 270 270 270 269 270 272 272 273 274 275 276 277 277 278 278 279 280 282 282 284 286 286 283 284 284 284 283 284 283 283 284 285
274 273 272 271 271 270 270 269 269 268 269 271 272 272 273 274 274 275 275 276 276 277 278 280 281 281 282 283 282 282 282 282 282 283 283 283 284 284
275 274 273 272 271 271 270 269 269 268 268 269 271 271 272 272 273 274 274 275 275 275 276 277 279 281 282 281 281 281 281 281 281 281 281 281 280 282
276 275 274 273 272 271 270 270 270 269 268 268 270 271 271 271 272 272 273 273 274 274 275 277 280 281 281 281 280 279 281 281 281 280 280 280 280 282
277 276 275 274 273 272 271 270 270 269 268 268 269 270 270 270 271 272 273 273 273 273 274 276 278 279 280 280 280 280 281 281 281 281 281 280 280 280
Wind_Speed
14 11 12 13 14 16 15 14 9 6 10 18 19 19 23 22 18 21 22 18 15 15 14 12 18 15 13 7 4 5 17 14 19 20 19 18 16 12
11 13 14 16 18 21 21 22 19 16 9 19 24 24 25 26 23 21 21 20 19 16 15 15 16 17 16 16 14 8 4 8 19 22 22 24 18 15
13 13 17 20 24 23 21 21 21 18 15 25 25 28 29 26 25 19 18 21 19 18 16 15 16 16 15 13 20 18 8 1 8 22 25 22 21 19
14 17 23 24 23 22 22 23 22 22 21 21 25 26 25 24 19 21 22 20 19 17 15 13 13 15 14 11 10 9 12 5 3 15 21 22 21 24
19 23 23 24 25 25 26 24 23 21 21 19 24 23 24 25 25 23 22 20 17 17 17 15 12 13 15 12 11 10 10 11 5 1 6 19 20 21
22 22 25 25 24 26 24 21 19 21 20 21 23 25 19 22 19 19 21 19 17 16 17 17 12 9 16 17 12 8 8 11 12 9 10 12 13 12
23 25 23 22 24 24 24 21 23 22 19 18 18 18 17 14 13 14 13 18 16 15 15 12 12 8 1 11 18 16 13 13 11 15 11 9 9 9
24 25 24 22 20 21 23 23 24 24 20 19 20 18 19 18 14 14 11 7 3 8 10 8 9 12 9 3 4 14 19 15 13 13 16 15 17 12
22 21 19 18 21 22 22 23 25 23 22 24 18 15 18 20 21 16 14 14 11 15 13 17 14 16 12 12 8 7 10 14 16 18 22 21 21 18
20 18 20 20 21 21 26 21 21 23 22 20 20 22 22 22 23 23 20 15 16 16 14 10 11 16 11 11 12 12 12 10 10 15 16 18 19 17
18 19 18 18 20 23 24 18 21 19 19 16 18 19 20 20 19 17 15 16 13 13 14 14 12 15 15 14 12 15 18 15 16 15 15 15 16 15
20 18 18 17 21 22 21 20 20 17 19 18 18 18 17 18 19 19 21 15 5 2 11 13 13 10 5 10 11 16 19 19 20 20 20 20 19 19
18 19 20 18 21 20 19 19 18 18 16 15 15 14 14 14 14 15 18 23 19 16 14 13 9 10 10 3 2 2 4 18 19 17 20 23 23 23
19 19 18 19 19 17 16 17 17 17 18 17 16 15 16 17 16 15 16 19 22 25 19 18 10 13 9 3 3 5 3 8 10 11 13 15 20 24
16 14 15 16 16 14 15 16 17 19 18 17 16 16 18 17 15 12 10 14 19 22 23 25 22 19 16 10 6 4 3 5 9 10 12 13 17 18
17 13 14 15 15 15 17 17 19 18 16 17 17 19 17 18 17 17 9 5 9 7 6 16 18 19 14 13 12 11 11 5 2 7 10 10 11 12
14 12 15 18 20 18 20 19 21 20 20 20 20 20 19 19 19 19 17 13 9 6 8 2 10 14 16 14 11 13 10 11 12 11 10 9 11 11
12 12 14 15 17 17 17 19 20 22 19 19 19 19 17 18 18 19 18 15 12 13 13 11 2 8 8 9 13 6 7 7 7 8 8 9 12 15
10 11 11 12 14 14 14 16 18 19 17 16 17 18 19 16 18 16 18 16 13 12 14 13 13 3 2 2 2 3 6 4 6 8 9 11 6 7
9 10 11 11 12 13 12 14 15 17 17 16 16 17 17 15 15 15 15 16 14 11 12 11 11 10 4 2 1 2 1 1 3 2 3 6 9 10
9 10 10 11 11 11 11 11 12 13 14 14 14 15 16 15 15 14 14 14 14 13 12 12 13 7 3 0 1 1 2 2 1 1 0 1 1 1
11 11 9 10 11 10 11 10 12 13 13 13 13 13 13 14 13 14 13 13 15 14 13 12 9 5 1 1 0 2 2 3 2 2 2 3 1 1
12 12 10 10 10 10 10 10 10 12 12 12 11 12 13 14 14 13 13 11 13 15 15 13 11 5 4 3 2 0 2 3 2 2 3 0 1 1
Wind_Direction
291 286 282 292 303 314 311 312 292 300 292 292 277 278 285 296 289 292 303 313 321 312 316 341 343 299 271 276 306 258 247 241 238 231 210 198 184 181
277 279 286 299 309 311 307 308 305 281 283 289 287 284 284 283 272 277 288 297 297 306 316 305 321 329 287 264 274 295 269 225 240 229 202 187 185 174
281 289 297 310 311 308 305 304 302 295 280 289 284 285 288 281 269 261 279 288 294 298 298 297 299 308 316 270 260 262 290 273 201 208 190 184 176 168
298 306 309 313 306 302 303 303 303 298 280 284 287 287 284 287 262 275 277 281 286 286 288 295 291 276 298 309 262 278 255 247 115 167 179 172 158 157
310 311 310 312 307 304 306 301 299 293 284 282 295 290 284 284 278 264 269 274 275 279 283 286 293 275 255 279 296 268 252 228 176 177 131 150 159 163
310 310 310 311 308 305 300 291 295 294 290 285 283 284 272 288 282 263 260 266 275 282 284 278 276 292 249 239 262 266 249 228 226 207 179 161 162 173
315 315 313 309 301 300 301 299 301 289 281 281 284 289 294 292 280 272 254 266 274 284 291 291 255 271 340 231 223 231 242 229 232 227 223 218 193 203
322 319 316 311 310 306 302 298 295 293 286 277 276 267 275 276 278 287 266 265 280 255 277 272 288 265 268 255 162 206 225 232 226 223 220 220 218 219
323 324 322 315 316 314 310 302 301 296 290 291 286 291 281 268 270 274 269 268 253 265 279 284 281 278 254 265 249 217 201 206 215 226 231 225 227 218
330 328 319 320 321 317 312 320 311 307 300 279 278 282 286 290 289 264 267 269 275 271 264 265 274 271 274 256 249 239 234 217 206 203 206 212 214 208
334 331 327 324 325 325 327 329 329 315 329 289 282 280 282 281 277 285 252 243 247 248 249 243 250 262 279 276 263 238 237 230 211 204 200 206 210 214
331 329 330 330 329 332 333 338 321 328 329 322 306 304 294 285 278 261 260 261 244 218 250 232 255 243 276 257 249 233 226 222 223 219 217 222 224 228
335 329 333 332 334 333 334 339 339 333 332 329 326 322 320 310 293 274 260 250 244 244 242 245 254 214 220 267 240 227 238 233 224 232 232 230 228 231
335 336 337 335 336 337 338 343 346 350 351 347 340 332 327 323 315 299 269 256 253 251 248 239 234 223 204 202 279 304 280 211 208 221 220 226 230 232
338 335 335 342 347 351 349 351 0 1 354 348 341 334 332 334 336 330 293 263 259 260 256 248 241 228 235 241 241 226 352 230 215 230 225 226 224 217
337 337 344 354 2 6 5 3 4 2 359 349 342 348 357 3 0 3 349 322 250 276 285 246 239 224 225 229 230 252 261 229 206 232 219 213 204 204
339 341 355 5 6 6 4 7 4 4 6 6 1 357 0 9 7 15 22 31 40 28 23 87 233 229 230 230 224 239 243 242 251 248 252 239 216 220
349 347 352 360 4 1 356 357 4 4 4 5 9 8 3 7 4 17 26 23 22 20 22 20 59 187 205 225 235 228 239 249 259 256 246 240 253 241
343 348 343 347 353 355 357 359 355 1 1 7 10 12 12 15 22 14 19 20 12 11 11 18 27 34 158 153 138 222 229 262 256 238 239 235 243 275
320 323 334 338 341 346 347 351 352 357 3 3 7 10 13 16 16 15 14 9 6 4 359 7 16 15 20 32 88 162 107 279 266 255 233 225 240 254
302 309 313 325 327 334 339 347 353 356 358 360 4 7 8 8 7 7 6 9 8 3 351 348 344 336 299 247 353 235 204 167 111 120 174 222 186 214
286 290 302 307 317 319 330 333 345 353 356 358 359 1 4 5 2 358 358 356 358 355 340 341 352 3 208 233 278 292 192 173 145 128 78 46 43 125
278 279 285 294 304 311 315 321 327 343 347 349 353 356 358 358 358 357 356 357 358 357 360 353 2 19 48 33 355 286 136 131 123 141 183 68 42 14